World > North America > United States > New York
Hourly regional weather for Stuyvesant, New YorkStuyvesant, New York Regional Hourly Weather

Stuyvesant, New York Regional Weather

regional weather stuyvesant, nyHOURLY REGIONAL WEATHER FOR STUYVESANT, NY
Lat: 42.39N, Lon: 73.78W 
Web Search

Helpful Tip: You can add this page to Bookmarks by pressing the Ctrl key & d key at the same time. Mac users press command & d.

Feedback


°F Click to change Stuyvesant hourly weather to Imperial units.Click to change Stuyvesant hourly weather to Metric units. °C
Stuyvesant Weather Map
UTC Time: 8/3/2021, 07:15
Your Time:

Stuyvesant, NY Regional Weather

Expires:202108030800;;896316
ASUS41 KALY 030710
RWRALY

NEW YORK STATE HOURLY WEATHER ROUNDUP
NATIONAL WEATHER SERVICE ALBANY NY
300 AM EDT TUE AUG 03 2021

NOTE: "FAIR" INDICATES FEW OR NO CLOUDS BELOW 12,000 FEET WITH NO
SIGNIFICANT WEATHER AND/OR NO OBSTRUCTIONS TO VISIBILITY.


NYZ032-033-038>043-046>054-057>066-NYZ062>081-082-084-030800-
EAST

  
CITY           SKY/WX    TMP DP  RH WIND       PRES   REMARKS
ALBANY         CLEAR     53  51  93 CALM      30.11S                  
GLENS FALLS    CLEAR     49  48  97 CALM      30.10S FOG              
POUGHKEEPSIE   CLEAR     55  52  89 CALM      30.10S                  
NEWBURGH       CLEAR     55  55 100 CALM      30.11F                  
MONTGOMERY     CLEAR     51  50  96 SW3       30.11S                  
WHITE PLAINS   PTCLDY    60  54  80 NW8       30.10R                  
ISLIP          PTCLDY    63  59  87 NW7       30.09R                  
NEW YORK CITY  PTCLDY    71  52  50 NE3       30.09R                  
CENTRAL PARK   PTCLDY    67  50  54 CALM      30.12S                  
$$


SKY/WX - Weather  TMP - Temperature  DP - Dew Point  RH - Relative Humidity
WIND - Wind Direction/Speed PRES - Barometric Pressure VSB - Visibility
WCI - Wind Chill Index E13G22 Wind - East Wind 13 mph/Gusts of 22 mph